,,,PA_Meas_PMT16A,,PR_Meas_QMR101_102,,RH_Meas_QMH101,,SR_Meas_QMS101,,TA_Meas_QMH101,,GenWind,,GenWind,
date,time,status,PA,status,PR,status,RH,status,SR,status,TA,status,DirAvg,status,SpdAvg,
2010-10-14, 00:00:05,VALID,999.932,VALID,0,VALID,89.7777,VALID,0,VALID,24.4818,VALID,48,VALID,0.748047,
2010-10-14, 00:01:05,VALID,999.972,VALID,0,VALID,89.7854,VALID,0,VALID,24.4818,VALID,48,VALID,0.546094,
2010-10-14, 00:02:05,VALID,999.95,VALID,0,VALID,89.8006,VALID,0,VALID,24.4623,VALID,48,VALID,0.623047,
2010-10-14, 00:03:05,VALID,999.985,VALID,0,VALID,89.8006,VALID,0,VALID,24.4428,VALID,48,VALID,0.732813,
2010-10-14, 00:04:05,VALID,999.989,VALID,0,VALID,89.7625,VALID,0,VALID,24.4233,VALID,48,VALID,0.780469,
2010-10-14, 00:05:05,VALID,999.954,VALID,0,VALID,89.6709,VALID,0,VALID,24.4037,VALID,48,VALID,0.760156,
2010-10-14, 00:06:05,VALID,999.937,VALID,0,VALID,89.6557,VALID,0,VALID,24.3842,VALID,48,VALID,0.804688,
2010-10-14, 00:07:05,VALID,999.902,VALID,0,VALID,89.6709,VALID,0,VALID,24.3842,VALID,48,VALID,0.703516,
2010-10-14, 00:08:05,VALID,999.901,VALID,0,VALID,89.7549,VALID,0,VALID,24.3842,VALID,48,VALID,0.766797,
2010-10-14, 00:09:05,VALID,999.869,VALID,0,VALID,89.9151,VALID,0,VALID,24.3647,VALID,48,VALID,0.846875,
2010-10-14, 00:10:05,VALID,999.87,VALID,0,VALID,89.9914,VALID,0,VALID,24.3629,VALID,48,VALID,0.7625,
2010-10-14, 00:11:05,VALID,999.842,VALID,0,VALID,90.06,VALID,0,VALID,24.3647,VALID,48,VALID,0.766016,
2010-10-14, 00:12:05,VALID,999.873,VALID,0,VALID,90.1363,VALID,0,VALID,24.3647,VALID,56,VALID,0.890625,
2010-10-14, 00:13:05,VALID,999.825,VALID,0,VALID,90.3042,VALID,0,VALID,24.3433,VALID,68,VALID,1.00859,
2010-10-14, 00:14:05,VALID,999.881,VALID,0,VALID,90.4339,VALID,0,VALID,24.3647,VALID,72,VALID,0.982813,
2010-10-14, 00:15:05,VALID,999.89,VALID,0,VALID,90.5407,VALID,0,VALID,24.3647,VALID,72,VALID,0.683984,
2010-10-14, 00:16:05,VALID,999.897,VALID,0,VALID,90.5712,VALID,0,VALID,24.3647,VALID,72,VALID,0.587891,
2010-10-14, 00:17:05,VALID,999.877,VALID,0,VALID,90.6246,VALID,0,VALID,24.3452,VALID,72,VALID,0.756641,
2010-10-14, 00:18:05,VALID,999.888,VALID,0,VALID,90.7009,VALID,0,VALID,24.3452,VALID,62,VALID,0.910156,
2010-10-14, 00:19:05,VALID,999.89,VALID,0,VALID,90.7849,VALID,0,VALID,24.3257,VALID,60,VALID,0.911328,
2010-10-14, 00:20:05,VALID,999.839,VALID,0,VALID,90.8535,VALID,0,VALID,24.2671,VALID,47,VALID,0.914063,
2010-10-14, 00:21:05,VALID,999.818,VALID,0,VALID,90.9374,VALID,0,VALID,24.2476,VALID,46,VALID,0.830469,
2010-10-14, 00:22:05,VALID,999.824,VALID,0,VALID,90.9832,VALID,0,VALID,24.2281,VALID,46,VALID,0.742969,
2010-10-14, 00:23:05,VALID,999.759,VALID,0,VALID,91.0061,VALID,0,VALID,24.1891,VALID,49,VALID,1.20156,
2010-10-14, 00:24:05,VALID,999.765,VALID,0,VALID,90.9146,VALID,0,VALID,24.1696,VALID,50,VALID,1.18867,
2010-10-14, 00:25:05,VALID,999.676,VALID,0,VALID,90.884,VALID,0,VALID,24.1696,VALID,52,VALID,1.07891,
2010-10-14, 00:26:05,VALID,999.682,VALID,0,VALID,90.8764,VALID,0,VALID,24.1482,VALID,53,VALID,1.21523,
2010-10-14, 00:27:05,VALID,999.689,VALID,0,VALID,90.8306,VALID,0,VALID,24.1696,VALID,53,VALID,0.995313,
2010-10-14, 00:28:05,VALID,999.695,VALID,0,VALID,90.8383,VALID,0,VALID,24.1696,VALID,53,VALID,0.886328,
2010-10-14, 00:29:05,VALID,999.709,VALID,0,VALID,90.8917,VALID,0,VALID,24.1696,VALID,53,VALID,0.592578,
2010-10-14, 00:30:05,VALID,999.672,VALID,0,VALID,90.884,VALID,0,VALID,24.15,VALID,53,VALID,0.557422,
2010-10-14, 00:31:05,VALID,999.645,VALID,0,VALID,90.9069,VALID,0,VALID,24.15,VALID,53,VALID,0.467969,
2010-10-14, 00:32:05,VALID,999.62,VALID,0,VALID,90.9222,VALID,0,VALID,24.15,VALID,53,VALID,0.259766,
2010-10-14, 00:33:05,VALID,999.571,VALID,0,VALID,90.968,VALID,0,VALID,24.1305,VALID,53,VALID,0.370703,
2010-10-14, 00:34:05,VALID,999.568,VALID,0,VALID,91.0061,VALID,0,VALID,24.1305,VALID,53,VALID,0.460547,
2010-10-14, 00:35:05,VALID,999.592,VALID,0,VALID,91.0366,VALID,0,VALID,24.111,VALID,53,VALID,0.381641,
2010-10-14, 00:36:05,VALID,999.587,VALID,0,VALID,91.1129,VALID,0,VALID,24.111,VALID,53,VALID,0.245312,
2010-10-14, 00:37:05,VALID,999.555,VALID,0,VALID,91.174,VALID,0,VALID,24.111,VALID,53,VALID,0.382031,
2010-10-14, 00:38:05,VALID,999.581,VALID,0,VALID,91.2655,VALID,0,VALID,24.1092,VALID,53,VALID,0.484375,
2010-10-14, 00:39:05,VALID,999.618,VALID,0,VALID,91.2731,VALID,0,VALID,24.1092,VALID,53,VALID,0.649609,
2010-10-14, 00:40:05,VALID,999.604,VALID,0,VALID,91.2197,VALID,0,VALID,24.1092,VALID,53,VALID,0.578516,
2010-10-14, 00:41:05,VALID,999.568,VALID,0,VALID,91.1892,VALID,0,VALID,24.1092,VALID,53,VALID,0.646875,
2010-10-14, 00:42:05,VALID,999.521,VALID,0,VALID,91.0824,VALID,0,VALID,24.0897,VALID,53,VALID,0.757422,
2010-10-14, 00:43:05,VALID,999.499,VALID,0,VALID,90.968,VALID,0,VALID,24.0701,VALID,53,VALID,0.784766,
2010-10-14, 00:44:05,VALID,999.493,VALID,0,VALID,90.9146,VALID,0,VALID,24.0488,VALID,53,VALID,0.721094,
2010-10-14, 00:45:05,VALID,999.486,VALID,0,VALID,90.762,VALID,0.112286,VALID,24.0897,VALID,53,VALID,0.543359,
2010-10-14, 00:46:05,VALID,999.474,VALID,0,VALID,90.617,VALID,0,VALID,24.0701,VALID,53,VALID,0.355859,
2010-10-14, 00:47:05,VALID,999.483,VALID,0,VALID,90.5026,VALID,0,VALID,24.0897,VALID,53,VALID,0.34375,
2010-10-14, 00:48:05,VALID,999.454,VALID,0,VALID,90.3652,VALID,0,VALID,24.0701,VALID,53,VALID,0.362891,
2010-10-14, 00:49:05,VALID,999.443,VALID,0,VALID,90.35,VALID,0,VALID,24.0701,VALID,53,VALID,0.402344,
2010-10-14, 00:50:05,VALID,999.445,VALID,0,VALID,90.3423,VALID,0,VALID,24.0897,VALID,53,VALID,0.333984,
2010-10-14, 00:51:05,VALID,999.436,VALID,0,VALID,90.3881,VALID,0,VALID,24.0897,VALID,53,VALID,0.216797,
2010-10-14, 00:52:05,VALID,999.44,VALID,0,VALID,90.3118,VALID,0,VALID,24.0701,VALID,53,VALID,0.267969,
2010-10-14, 00:53:05,VALID,999.449,VALID,0,VALID,90.3957,VALID,0,VALID,24.0506,VALID,53,VALID,0.163672,
2010-10-14, 00:54:05,VALID,999.451,VALID,0,VALID,90.5483,VALID,0,VALID,24.0506,VALID,53,VALID,0.396094,
2010-10-14, 00:55:05,VALID,999.469,VALID,0,VALID,90.7238,VALID,0,VALID,24.0506,VALID,53,VALID,0.559766,
2010-10-14, 00:56:05,VALID,999.426,VALID,0,VALID,90.7467,VALID,0,VALID,24.0701,VALID,53,VALID,0.696875,
2010-10-14, 00:57:05,VALID,999.445,VALID,0,VALID,90.7085,VALID,0,VALID,24.0897,VALID,53,VALID,0.676172,
2010-10-14, 00:58:05,VALID,999.456,VALID,0,VALID,90.6246,VALID,0,VALID,24.111,VALID,53,VALID,0.791406,
2010-10-14, 00:59:05,VALID,999.458,VALID,0,VALID,90.4568,VALID,0,VALID,24.1305,VALID,53,VALID,0.689062,
2010-10-14, 01:00:05,VALID,999.446,VALID,0,VALID,90.2737,VALID,0,VALID,24.111,VALID,53,VALID,0.655859,
2010-10-14, 01:01:05,VALID,999.463,VALID,0,VALID,90.3042,VALID,0,VALID,24.1305,VALID,53,VALID,0.544922,
2010-10-14, 01:02:05,VALID,999.446,VALID,0,VALID,90.2813,VALID,0,VALID,24.1305,VALID,53,VALID,0.452734,
2010-10-14, 01:03:05,VALID,999.423,VALID,0,VALID,90.3271,VALID,0,VALID,24.1305,VALID,53,VALID,0.533594,
2010-10-14, 01:04:05,VALID,999.395,VALID,0,VALID,90.2431,VALID,0,VALID,24.1696,VALID,53,VALID,0.716406,
2010-10-14, 01:05:05,VALID,999.344,VALID,0,VALID,90.0906,VALID,0,VALID,24.1891,VALID,95,VALID,0.754297,
2010-10-14, 01:06:05,VALID,999.269,VALID,0,VALID,90.0448,VALID,0,VALID,24.2299,VALID,100,VALID,0.794922,
2010-10-14, 01:07:05,VALID,999.234,VALID,0,VALID,89.9685,VALID,0,VALID,24.2281,VALID,111,VALID,0.829297,
2010-10-14, 01:08:05,VALID,999.25,VALID,0,VALID,89.9074,VALID,0,VALID,24.2476,VALID,111,VALID,0.844141,
2010-10-14, 01:09:05,VALID,999.242,VALID,0,VALID,89.8922,VALID,0,VALID,24.2476,VALID,111,VALID,0.672656,
2010-10-14, 01:10:05,VALID,999.21,VALID,0,VALID,89.9227,VALID,0,VALID,24.2281,VALID,122,VALID,0.673828,
2010-10-14, 01:11:05,VALID,999.228,VALID,0,VALID,89.9761,VALID,0,VALID,24.2281,VALID,124,VALID,0.754297,
2010-10-14, 01:12:05,VALID,999.229,VALID,0,VALID,90.0906,VALID,0,VALID,24.2476,VALID,140,VALID,0.751562,
2010-10-14, 01:13:05,VALID,999.235,VALID,0,VALID,90.2431,VALID,0,VALID,24.2476,VALID,148,VALID,0.50625,
2010-10-14, 01:14:05,VALID,999.196,VALID,0,VALID,90.3271,VALID,0,VALID,24.2476,VALID,150,VALID,0.478906,
2010-10-14, 01:15:05,VALID,999.205,VALID,0,VALID,90.3881,VALID,0,VALID,24.2476,VALID,148,VALID,0.670703,
2010-10-14, 01:16:05,VALID,999.223,VALID,0,VALID,90.3957,VALID,0,VALID,24.2476,VALID,144,VALID,0.410156,
2010-10-14, 01:17:05,VALID,999.232,VALID,0,VALID,90.3423,VALID,0,VALID,24.2671,VALID,144,VALID,0.171484,
2010-10-14, 01:18:05,VALID,999.239,VALID,0,VALID,90.2203,VALID,0,VALID,24.2476,VALID,144,VALID,0,
2010-10-14, 01:19:05,VALID,999.209,VALID,0,VALID,90.2203,VALID,0,VALID,24.2476,VALID,144,VALID,0.0273438,
2010-10-14, 01:20:05,VALID,999.184,VALID,0,VALID,90.2889,VALID,0,VALID,24.2476,VALID,144,VALID,0.170703,
2010-10-14, 01:21:05,VALID,999.126,VALID,0,VALID,90.35,VALID,0,VALID,24.269,VALID,144,VALID,0.233594,
2010-10-14, 01:22:05,VALID,999.137,VALID,0,VALID,90.3652,VALID,0,VALID,24.2671,VALID,144,VALID,0.220703,
2010-10-14, 01:23:05,VALID,999.121,VALID,0,VALID,90.3423,VALID,0,VALID,24.2866,VALID,144,VALID,0.351563,
2010-10-14, 01:24:05,VALID,999.114,VALID,0,VALID,90.2737,VALID,0,VALID,24.2866,VALID,144,VALID,0.388672,
2010-10-14, 01:25:05,VALID,999.138,VALID,0,VALID,90.1211,VALID,0,VALID,24.2671,VALID,144,VALID,0.551172,
2010-10-14, 01:26:05,VALID,999.152,VALID,0,VALID,90.06,VALID,0,VALID,24.2281,VALID,23,VALID,0.621875,
2010-10-14, 01:27:05,VALID,999.117,VALID,0,VALID,90.1592,VALID,0,VALID,24.2086,VALID,23,VALID,0.449219,
2010-10-14, 01:28:05,VALID,999.102,VALID,0,VALID,90.2889,VALID,0,VALID,24.2086,VALID,23,VALID,0.342969,
2010-10-14, 01:29:05,VALID,999.071,VALID,0,VALID,90.3728,VALID,0,VALID,24.2086,VALID,23,VALID,0.34375,
2010-10-14, 01:30:05,VALID,999.044,VALID,0,VALID,90.4949,VALID,0,VALID,24.2086,VALID,23,VALID,0.488672,
2010-10-14, 01:31:05,VALID,999.049,VALID,0,VALID,90.5331,VALID,0,VALID,24.2086,VALID,23,VALID,0.327344,
2010-10-14, 01:32:05,VALID,999.063,VALID,0,VALID,90.5026,VALID,0,VALID,24.2281,VALID,23,VALID,0.450391,
2010-10-14, 01:33:05,VALID,999.035,VALID,0,VALID,90.3652,VALID,0,VALID,24.2671,VALID,23,VALID,0.448828,
2010-10-14, 01:34:05,VALID,999.008,VALID,0,VALID,90.2584,VALID,0,VALID,24.2866,VALID,23,VALID,0.505078,
2010-10-14, 01:35:05,VALID,998.992,VALID,0,VALID,90.0906,VALID,0,VALID,24.3062,VALID,23,VALID,0.601953,
2010-10-14, 01:36:05,VALID,998.985,VALID,0,VALID,89.8235,VALID,0,VALID,24.3452,VALID,102,VALID,0.735156,
2010-10-14, 01:37:05,VALID,998.962,VALID,0,VALID,89.5031,VALID,0,VALID,24.3647,VALID,102,VALID,0.946484,
2010-10-14, 01:38:05,VALID,998.956,VALID,0,VALID,89.2818,VALID,0,VALID,24.4037,VALID,91,VALID,0.898828,
2010-10-14, 01:39:05,VALID,998.944,VALID,0,VALID,89.381,VALID,0,VALID,24.4233,VALID,77,VALID,0.872266,
2010-10-14, 01:40:05,VALID,998.922,VALID,0,VALID,89.4039,VALID,0,VALID,24.4233,VALID,68,VALID,0.875,
2010-10-14, 01:41:05,VALID,998.885,VALID,0,VALID,89.4115,VALID,0,VALID,24.4019,VALID,61,VALID,0.794531,
2010-10-14, 01:42:05,VALID,998.884,VALID,0,VALID,89.4954,VALID,0,VALID,24.3842,VALID,56,VALID,0.679297,
2010-10-14, 01:43:05,VALID,998.844,VALID,0,VALID,89.5641,VALID,0,VALID,24.3647,VALID,56,VALID,0.542578,
2010-10-14, 01:44:05,VALID,998.833,VALID,0,VALID,89.6938,VALID,0,VALID,24.3647,VALID,56,VALID,0.466016,
2010-10-14, 01:45:05,VALID,998.823,VALID,0,VALID,89.8388,VALID,0,VALID,24.3062,VALID,56,VALID,0.329297,
2010-10-14, 01:46:05,VALID,998.814,VALID,0,VALID,89.9456,VALID,0,VALID,24.2866,VALID,56,VALID,0.396484,
2010-10-14, 01:47:05,VALID,998.797,VALID,0,VALID,90.0295,VALID,0,VALID,24.2281,VALID,56,VALID,0.446875,
2010-10-14, 01:48:05,VALID,998.825,VALID,0,VALID,90.2203,VALID,0,VALID,24.2281,VALID,18,VALID,0.726172,
2010-10-14, 01:49:05,VALID,998.822,VALID,0,VALID,90.4034,VALID,0,VALID,24.2281,VALID,18,VALID,0.564062,
2010-10-14, 01:50:05,VALID,998.865,VALID,0,VALID,90.4797,VALID,0,VALID,24.2281,VALID,18,VALID,0.446094,
2010-10-14, 01:51:05,VALID,998.846,VALID,0,VALID,90.5407,VALID,0,VALID,24.2086,VALID,18,VALID,0.354688,
2010-10-14, 01:52:05,VALID,998.822,VALID,0,VALID,90.5407,VALID,0,VALID,24.2086,VALID,18,VALID,0.0875,
2010-10-14, 01:53:05,VALID,998.805,VALID,0,VALID,90.5712,VALID,0,VALID,24.1872,VALID,18,VALID,0.214844,
2010-10-14, 01:54:05,VALID,998.795,VALID,0,VALID,90.5941,VALID,0,VALID,24.1872,VALID,18,VALID,0.15625,
2010-10-14, 01:55:05,VALID,998.801,VALID,0,VALID,90.5865,VALID,0,VALID,24.1677,VALID,18,VALID,0.265625,
2010-10-14, 01:56:05,VALID,998.784,VALID,0,VALID,90.7238,VALID,0,VALID,24.1677,VALID,18,VALID,0.510547,
2010-10-14, 01:57:05,VALID,998.789,VALID,0,VALID,90.7391,VALID,0,VALID,24.1872,VALID,18,VALID,0.414844,
2010-10-14, 01:58:05,VALID,998.801,VALID,0,VALID,90.6399,VALID,0,VALID,24.1872,VALID,18,VALID,0.144141,
2010-10-14, 01:59:05,VALID,998.788,VALID,0,VALID,90.5331,VALID,0,VALID,24.1872,VALID,18,VALID,0,
2010-10-14, 02:00:05,VALID,998.788,VALID,0,VALID,90.411,VALID,0,VALID,24.1677,VALID,18,VALID,0,
2010-10-14, 02:01:05,VALID,998.741,VALID,0,VALID,90.3728,VALID,0,VALID,24.1482,VALID,18,VALID,0.340625,
2010-10-14, 02:02:05,VALID,998.721,VALID,0,VALID,90.472,VALID,0,VALID,24.1677,VALID,18,VALID,0.298828,
2010-10-14, 02:03:05,VALID,998.709,VALID,0,VALID,90.5407,VALID,0,VALID,24.1872,VALID,18,VALID,0.588281,
2010-10-14, 02:04:05,VALID,998.651,VALID,0,VALID,90.3957,VALID,0,VALID,24.2458,VALID,18,VALID,0.714063,
2010-10-14, 02:05:05,VALID,998.611,VALID,0,VALID,90.0906,VALID,0,VALID,24.2848,VALID,108,VALID,0.74375,
2010-10-14, 02:06:05,VALID,998.595,VALID,0,VALID,89.8769,VALID,0,VALID,24.3238,VALID,108,VALID,0.684766,
2010-10-14, 02:07:05,VALID,998.62,VALID,0,VALID,89.6862,VALID,0,VALID,24.3629,VALID,108,VALID,0.522656,
2010-10-14, 02:08:05,VALID,998.61,VALID,0,VALID,89.4726,VALID,0,VALID,24.3842,VALID,108,VALID,0.573438,
2010-10-14, 02:09:05,VALID,998.608,VALID,0,VALID,89.3428,VALID,0,VALID,24.3842,VALID,108,VALID,0.607813,
2010-10-14, 02:10:05,VALID,998.612,VALID,0,VALID,89.3734,VALID,0,VALID,24.3647,VALID,108,VALID,0.707812,
2010-10-14, 02:11:05,VALID,998.614,VALID,0,VALID,89.4039,VALID,0,VALID,24.3647,VALID,108,VALID,0.8,
2010-10-14, 02:12:05,VALID,998.629,VALID,0,VALID,89.4802,VALID,0,VALID,24.3647,VALID,108,VALID,0.475,
2010-10-14, 02:13:05,VALID,998.625,VALID,0,VALID,89.5641,VALID,0,VALID,24.3452,VALID,108,VALID,0.572266,
2010-10-14, 02:14:05,VALID,998.637,VALID,0,VALID,89.6099,VALID,0,VALID,24.3452,VALID,108,VALID,0.3375,
2010-10-14, 02:15:05,VALID,998.647,VALID,0,VALID,89.6557,VALID,0,VALID,24.3257,VALID,108,VALID,0.292578,
2010-10-14, 02:16:05,VALID,998.637,VALID,0,VALID,89.648,VALID,0,VALID,24.3062,VALID,108,VALID,0.476953,
2010-10-14, 02:17:05,VALID,998.668,VALID,0,VALID,89.5946,VALID,0,VALID,24.2866,VALID,108,VALID,0.523438,
2010-10-14, 02:18:05,VALID,998.652,VALID,0,VALID,89.732,VALID,0,VALID,24.2476,VALID,108,VALID,0.584375,
2010-10-14, 02:19:05,VALID,998.655,VALID,0,VALID,90.0982,VALID,0,VALID,24.2476,VALID,108,VALID,0.513672,
2010-10-14, 02:20:05,VALID,998.648,VALID,0,VALID,90.1668,VALID,0,VALID,24.2281,VALID,108,VALID,0.421484,
2010-10-14, 02:21:05,VALID,998.664,VALID,0,VALID,90.2737,VALID,0,VALID,24.1891,VALID,108,VALID,0.4625,
2010-10-14, 02:22:05,VALID,998.624,VALID,0,VALID,90.3957,VALID,0,VALID,24.1696,VALID,108,VALID,0.397266,
2010-10-14, 02:23:05,VALID,998.642,VALID,0,VALID,90.5026,VALID,0,VALID,24.15,VALID,108,VALID,0.386328,
2010-10-14, 02:24:05,VALID,998.652,VALID,0,VALID,90.6323,VALID,0,VALID,24.0897,VALID,108,VALID,0.351172,
2010-10-14, 02:25:05,VALID,998.646,VALID,0,VALID,90.6704,VALID,0,VALID,24.0915,VALID,108,VALID,0.19375,
2010-10-14, 02:26:05,VALID,998.664,VALID,0,VALID,90.7467,VALID,0,VALID,24.072,VALID,108,VALID,0.136719,
2010-10-14, 02:27:05,VALID,998.687,VALID,0,VALID,90.8535,VALID,0,VALID,24.0525,VALID,108,VALID,0.208594,
2010-10-14, 02:28:05,VALID,998.7,VALID,0,VALID,90.9527,VALID,0,VALID,24.0134,VALID,108,VALID,0.349609,
2010-10-14, 02:29:05,VALID,998.736,VALID,0,VALID,91.0214,VALID,0,VALID,23.9939,VALID,108,VALID,0.521875,
2010-10-14, 02:30:05,VALID,998.731,VALID,0,VALID,91.0595,VALID,0,VALID,23.9744,VALID,108,VALID,0.546484,
2010-10-14, 02:31:05,VALID,998.759,VALID,0,VALID,91.1816,VALID,0,VALID,23.9549,VALID,73,VALID,0.790625,
2010-10-14, 02:32:05,VALID,998.73,VALID,0,VALID,91.2808,VALID,0,VALID,23.9549,VALID,72,VALID,0.871875,
2010-10-14, 02:33:05,VALID,998.699,VALID,0,VALID,91.4105,VALID,0,VALID,23.9549,VALID,63,VALID,1.05156,
2010-10-14, 02:34:05,VALID,998.722,VALID,0,VALID,91.4715,VALID,0,VALID,23.9549,VALID,63,VALID,1.04492,
2010-10-14, 02:35:04,VALID,998.725,VALID,0,VALID,91.4257,VALID,0,VALID,23.9744,VALID,63,VALID,0.85625,
2010-10-14, 02:36:04,VALID,998.724,VALID,0,VALID,91.3571,VALID,0,VALID,23.9744,VALID,63,VALID,0.748047,
2010-10-14, 02:37:04,VALID,998.756,VALID,0,VALID,91.2808,VALID,0,VALID,23.9549,VALID,63,VALID,0.614062,
2010-10-14, 02:38:04,VALID,998.723,VALID,0,VALID,91.1434,VALID,0,VALID,23.9549,VALID,63,VALID,0.560547,
2010-10-14, 02:39:04,VALID,998.72,VALID,0,VALID,91.1358,VALID,0,VALID,23.914,VALID,63,VALID,0.417578,
2010-10-14, 02:40:04,VALID,998.75,VALID,0,VALID,91.1663,VALID,0,VALID,23.8963,VALID,63,VALID,0.401172,
2010-10-14, 02:41:04,VALID,998.753,VALID,0,VALID,91.2121,VALID,0,VALID,23.8768,VALID,63,VALID,0.516406,
2010-10-14, 02:42:04,VALID,998.775,VALID,0,VALID,91.3571,VALID,0,VALID,23.8573,VALID,63,VALID,0.600391,
2010-10-14, 02:43:04,VALID,998.809,VALID,0,VALID,91.4791,VALID,0,VALID,23.8378,VALID,63,VALID,0.55625,
2010-10-14, 02:44:04,VALID,998.783,VALID,0,VALID,91.6012,VALID,0,VALID,23.8183,VALID,63,VALID,0.725,
2010-10-14, 02:45:04,VALID,998.824,VALID,0,VALID,91.6394,VALID,0,VALID,23.7988,VALID,46,VALID,0.800781,
2010-10-14, 02:46:04,VALID,998.787,VALID,0,VALID,91.7309,VALID,0,VALID,23.7988,VALID,45,VALID,0.88125,
2010-10-14, 02:47:04,VALID,998.83,VALID,0,VALID,91.7843,VALID,0,VALID,23.7988,VALID,37,VALID,0.899609,
2010-10-14, 02:48:04,VALID,998.841,VALID,0,VALID,91.8454,VALID,0,VALID,23.7793,VALID,37,VALID,0.925391,
2010-10-14, 02:49:04,VALID,998.866,VALID,0,VALID,91.9293,VALID,0,VALID,23.7988,VALID,32,VALID,0.901953,
2010-10-14, 02:50:04,VALID,998.924,VALID,0,VALID,91.914,VALID,0,VALID,23.7988,VALID,32,VALID,0.908984,
2010-10-14, 02:51:04,VALID,998.907,VALID,0,VALID,91.9217,VALID,0,VALID,23.8183,VALID,32,VALID,0.847266,
2010-10-14, 02:52:04,VALID,998.917,VALID,0,VALID,91.9445,VALID,0,VALID,23.8183,VALID,32,VALID,0.785937,
2010-10-14, 02:53:04,VALID,998.961,VALID,0,VALID,91.9827,VALID,0,VALID,23.8378,VALID,46,VALID,0.752344,
2010-10-14, 02:54:04,VALID,998.974,VALID,0,VALID,91.9598,VALID,0,VALID,23.8573,VALID,53,VALID,0.723437,
2010-10-14, 02:55:04,VALID,998.985,VALID,0,VALID,91.9522,VALID,0,VALID,23.8768,VALID,66,VALID,0.721875,
2010-10-14, 02:56:04,VALID,998.997,VALID,0,VALID,91.9217,VALID,0,VALID,23.8963,VALID,66,VALID,0.664844,
2010-10-14, 02:57:04,VALID,999.039,VALID,0,VALID,91.8606,VALID,0,VALID,23.8963,VALID,66,VALID,0.639453,
2010-10-14, 02:58:04,VALID,999.086,VALID,0,VALID,91.8148,VALID,0,VALID,23.8963,VALID,66,VALID,0.754297,
2010-10-14, 02:59:04,VALID,999.088,VALID,0,VALID,91.8225,VALID,0,VALID,23.9159,VALID,66,VALID,0.635156,
2010-10-14, 03:00:04,VALID,999.106,VALID,0,VALID,91.853,VALID,0,VALID,23.9159,VALID,66,VALID,0.54375,
2010-10-14, 03:01:04,VALID,999.101,VALID,0,VALID,91.8301,VALID,0,VALID,23.9354,VALID,66,VALID,0.427734,
2010-10-14, 03:02:04,VALID,999.149,VALID,0,VALID,91.853,VALID,0,VALID,23.9354,VALID,66,VALID,0.466406,
2010-10-14, 03:03:04,VALID,999.141,VALID,0,VALID,91.8911,VALID,0,VALID,23.9354,VALID,66,VALID,0.513281,
2010-10-14, 03:04:04,VALID,999.147,VALID,0,VALID,91.8988,VALID,0,VALID,23.9354,VALID,66,VALID,0.632813,
2010-10-14, 03:05:04,VALID,999.156,VALID,0,VALID,91.9522,VALID,0,VALID,23.9354,VALID,27,VALID,0.811328,
2010-10-14, 03:06:04,VALID,999.175,VALID,0,VALID,92.0056,VALID,0,VALID,23.9549,VALID,27,VALID,0.767578,
2010-10-14, 03:07:04,VALID,999.149,VALID,0,VALID,92.0361,VALID,0,VALID,23.9549,VALID,27,VALID,0.517578,
2010-10-14, 03:08:04,VALID,999.126,VALID,0,VALID,92.0819,VALID,0,VALID,23.9744,VALID,27,VALID,0.85,
2010-10-14, 03:09:04,VALID,999.109,VALID,0,VALID,92.059,VALID,0,VALID,23.9744,VALID,27,VALID,0.988281,
2010-10-14, 03:10:04,VALID,999.08,VALID,0,VALID,92.0361,VALID,0,VALID,23.9939,VALID,27,VALID,0.9125,
2010-10-14, 03:11:04,VALID,999.054,VALID,0,VALID,91.9903,VALID,0,VALID,23.9744,VALID,27,VALID,0.821094,
2010-10-14, 03:12:04,VALID,999.047,VALID,0,VALID,91.9522,VALID,0,VALID,23.9531,VALID,28,VALID,0.698047,
2010-10-14, 03:13:04,VALID,999.017,VALID,0,VALID,91.914,VALID,0,VALID,23.9549,VALID,32,VALID,0.706641,
2010-10-14, 03:14:04,VALID,998.972,VALID,0,VALID,91.8759,VALID,0,VALID,23.9549,VALID,32,VALID,0.577734,
2010-10-14, 03:15:04,VALID,998.982,VALID,0,VALID,91.8454,VALID,0,VALID,23.9549,VALID,32,VALID,0.442187,
2010-10-14, 03:16:04,VALID,998.994,VALID,0,VALID,91.8148,VALID,0,VALID,23.9549,VALID,32,VALID,0.4625,
2010-10-14, 03:17:04,VALID,998.989,VALID,0,VALID,91.8148,VALID,0,VALID,23.9744,VALID,32,VALID,0.554297,
2010-10-14, 03:18:04,VALID,998.991,VALID,0,VALID,91.7996,VALID,0,VALID,23.9744,VALID,32,VALID,0.600781,
2010-10-14, 03:19:04,VALID,998.987,VALID,0,VALID,91.7996,VALID,0,VALID,23.9744,VALID,32,VALID,0.618359,
2010-10-14, 03:20:04,VALID,999.032,VALID,0,VALID,91.8148,VALID,0,VALID,23.9744,VALID,32,VALID,0.562109,
2010-10-14, 03:21:04,VALID,999.028,VALID,0,VALID,91.792,VALID,0,VALID,23.9744,VALID,32,VALID,0.565625,
2010-10-14, 03:22:04,VALID,999.044,VALID,0,VALID,91.792,VALID,0,VALID,23.9939,VALID,32,VALID,0.562891,
2010-10-14, 03:23:04,VALID,999.089,VALID,0,VALID,91.8301,VALID,0,VALID,23.9939,VALID,32,VALID,0.576172,
2010-10-14, 03:24:04,VALID,999.096,VALID,0,VALID,91.8148,VALID,0,VALID,24.0329,VALID,32,VALID,0.358203,
2010-10-14, 03:25:04,VALID,999.109,VALID,0,VALID,91.7309,VALID,0,VALID,24.0134,VALID,32,VALID,0.342578,
2010-10-14, 03:26:04,VALID,999.161,VALID,0,VALID,91.6699,VALID,0,VALID,24.0329,VALID,33,VALID,0.419922,
2010-10-14, 03:27:04,VALID,999.18,VALID,0,VALID,91.5707,VALID,0,VALID,24.0329,VALID,33,VALID,0.303906,
2010-10-14, 03:28:04,VALID,999.225,VALID,0,VALID,91.5249,VALID,0,VALID,24.0329,VALID,33,VALID,0.163672,
2010-10-14, 03:29:04,VALID,999.249,VALID,0,VALID,91.4791,VALID,0,VALID,24.0134,VALID,33,VALID,0.187891,
2010-10-14, 03:30:04,VALID,999.29,VALID,0,VALID,91.4868,VALID,0,VALID,24.0329,VALID,33,VALID,0,
2010-10-14, 03:31:04,VALID,999.302,VALID,0,VALID,91.4868,VALID,0,VALID,23.9921,VALID,33,VALID,0,
2010-10-14, 03:32:04,VALID,999.313,VALID,0,VALID,91.502,VALID,0,VALID,24.0134,VALID,33,VALID,0.0535156,
2010-10-14, 03:33:04,VALID,999.332,VALID,0,VALID,91.5173,VALID,0,VALID,24.0329,VALID,33,VALID,0,
2010-10-14, 03:34:04,VALID,999.364,VALID,0,VALID,91.5249,VALID,0,VALID,23.9939,VALID,33,VALID,0,
2010-10-14, 03:35:04,VALID,999.375,VALID,0,VALID,91.5707,VALID,0,VALID,24.0329,VALID,33,VALID,0.120703,
2010-10-14, 03:36:04,VALID,999.371,VALID,0,VALID,91.586,VALID,0,VALID,24.0134,VALID,33,VALID,0.201562,
2010-10-14, 03:37:04,VALID,999.387,VALID,0,VALID,91.6088,VALID,0,VALID,24.0329,VALID,33,VALID,0.220703,
2010-10-14, 03:38:04,VALID,999.358,VALID,0,VALID,91.6394,VALID,0,VALID,24.0329,VALID,33,VALID,0.191406,
2010-10-14, 03:39:04,VALID,999.35,VALID,0,VALID,91.6165,VALID,0,VALID,24.0311,VALID,33,VALID,0.345313,
2010-10-14, 03:40:04,VALID,999.299,VALID,0,VALID,91.5402,VALID,0,VALID,24.0525,VALID,33,VALID,0.410156,
2010-10-14, 03:41:04,VALID,999.302,VALID,0,VALID,91.4028,VALID,0,VALID,24.0525,VALID,33,VALID,0.543359,
2010-10-14, 03:42:04,VALID,999.309,VALID,0,VALID,91.2579,VALID,0,VALID,24.0311,VALID,48,VALID,0.586328,
2010-10-14, 03:43:04,VALID,999.295,VALID,0,VALID,91.1358,VALID,0,VALID,24.0506,VALID,141,VALID,0.639453,
2010-10-14, 03:44:04,VALID,999.341,VALID,0,VALID,90.9832,VALID,0,VALID,24.0701,VALID,141,VALID,0.817578,
2010-10-14, 03:45:04,VALID,999.338,VALID,0,VALID,90.9451,VALID,0,VALID,24.1305,VALID,141,VALID,0.6625,
2010-10-14, 03:46:04,VALID,999.287,VALID,0,VALID,90.8459,VALID,0,VALID,24.15,VALID,141,VALID,0.56875,